This demonstration page uses our WeatherBlox Daily Observations layout. Learn more.

Left ArrowRight Arrow

39.29038, -76.61219

Hourly Observations for July 27, 2021

Temp ( °F °C ) Dew Point ( °F °C ) Humidity (%) Winds ( mph kmh ) Pressure ( in mb ) Visibility ( mi km ) Precip ( " mm )
12:54 am 00:54 Clear 74 23.3 70 21.1 88 88 VRB 3 6 29.96 1014 9 14 N/A
1:54 am 01:54 Clear 73 22.8 70 21.1 90 90 W 3 6 29.95 1014 9 14 N/A
2:54 am 02:54 Clear 73 22.8 69 20.6 87 87 N N/A 29.93 1014 10 16 N/A
3:54 am 03:54 Clear 71 21.7 68 20 90 90 W 3 6 29.92 1013 8 13 N/A
4:54 am 04:54 Clear 70 21.1 68 20 93 93 N N/A 29.94 1014 7 11 N/A
5:54 am 05:54 Mostly Clear with Fog 71 21.7 67 19.4 87 87 N N/A 29.96 1015 9 14 N/A
6:54 am 06:54 Mostly Sunny 72 22.2 69 20.6 91 91 N N/A 29.97 1015 9 14 N/A
7:54 am 07:54 Mostly Sunny 76 24.4 70 21.1 82 82 W 3 6 29.97 1015 10 16 N/A
8:54 am 08:54 Sunny 81 27.2 69 20.6 67 67 N N/A 29.97 1015 10 16 N/A
9:35 am 09:35 Sunny 85 29.4 68 20 57 57 VRB 3 6 29.96 1015 10 16 N/A
9:54 am 09:54 Sunny 85 29.4 67 19.4 55 55 VRB 3 6 29.97 1015 10 16 N/A
10:54 am 10:54 Mostly Sunny 89 31.7 66 18.9 47 47 N N/A 29.98 1015 10 16 N/A
11:54 am 11:54 Partly Cloudy 93 33.9 60 15.6 33 33 N N/A 29.97 1015 10 16 N/A
12:54 pm 12:54 Partly Cloudy 95 35 61 16.1 32 32 NNW 9 15 29.96 1015 10 16 N/A
1:54 pm 13:54 Partly Cloudy 94 34.4 60 15.6 32 32 VRB 6 9 29.96 1014 9 14 N/A
2:54 pm 14:54 Partly Cloudy 96 35.6 59 15 29 29 SW 12 19 29.94 1014 10 16 N/A
3:54 pm 15:54 Partly Cloudy 97 36.1 58 14.4 27 27 W 13 20 29.93 1014 10 16 N/A
4:54 pm 16:54 Mostly Sunny 95 35 58 14.4 29 29 W 13 20 29.92 1013 10 16 N/A
5:54 pm 17:54 Mostly Sunny 94 34.4 57 13.9 29 29 WSW 12 19 29.92 1013 10 16 N/A
6:54 pm 18:54 Mostly Sunny 93 33.9 56 13.3 29 29 NW 7 11 29.92 1013 10 16 N/A
7:54 pm 19:54 Mostly Sunny 88 31.1 56 13.3 34 34 VRB 3 6 29.92 1013 10 16 N/A
8:54 pm 20:54 Partly Cloudy 80 26.7 61 16.1 52 52 VRB 3 6 29.93 1014 10 16 N/A
9:54 pm 21:54 Mostly Clear 79 26.1 60 15.6 52 52 N N/A 29.95 1014 10 16 N/A
10:54 pm 22:54 Clear 76 24.4 61 16.1 60 60 N N/A 29.96 1015 10 16 N/A
11:54 pm 23:54 Clear 74 23.3 62 16.7 67 67 WSW 3 6 29.95 1014 10 16 N/A

Powered by AerisWeather